WB5LJZ-5 Weather Reports


Display with metric or nautical units.
time (UTC)temp
F
wind
direction
speed
MPH
gust
MPH
rain 1hr
in
rain 24hr
in
rain mn
in
humidity
%
barometer
mb
20190222081817 51 70 12.0 14.0 0.00 0.00 0.00 1013.4
20190222080741 52 83 11.0 12.0 0.00 0.00 0.00 1013.8
20190222075705 52 98 12.0 13.0 0.00 0.00 0.00 1013.7
20190222074628 52 83 12.0 11.0 0.00 0.00 0.00 1013.9
20190222073552 53 48 10.0 8.0 0.00 0.00 0.00 1013.8
20190222072516 53 58 9.0 9.0 0.00 0.00 0.00 1013.6
20190222071440 53 58 10.0 9.0 0.00 0.00 0.00 1013.6
20190222065328 53 65 11.0 10.0 0.00 0.00 0.00 1013.8
20190222064252 53 52 11.0 10.0 0.00 0.00 0.00 1014.0
20190222063215 53 62 8.0 12.0 0.00 0.00 0.00 1014.3
20190222062139 53 46 10.0 8.0 0.00 0.00 0.00 1014.2
20190222061103 53 62 10.0 9.0 0.00 0.00 0.00 1014.4
20190222060027 53 56 9.0 9.0 0.00 0.00 0.00 1014.3
20190222054950 53 52 11.0 9.0 0.00 0.00 0.00 1014.5
20190222053914 53 35 10.0 10.0 0.00 0.00 0.00 1014.4
20190222051800 54 59 9.0 7.0 0.00 0.00 0.00 1014.7
20190222050724 54 55 10.0 10.0 0.00 0.00 0.00 1014.6
20190222045648 54 97 11.0 7.0 0.00 0.00 0.00 1014.6
20190222044616 54 73 9.0 8.0 0.00 0.00 0.00 1014.6
20190222043536 54 62 9.0 7.0 0.00 0.00 0.00 1014.6
20190222042500 54 56 9.0 8.0 0.00 0.00 0.00 1014.2
20190222041424 54 37 8.0 11.0 0.00 0.00 0.00 1014.1
20190222040346 54 39 8.0 11.0 0.00 0.00 0.00 1014.5
20190222034233 54 51 5.0 8.0 0.00 0.00 0.00 1014.6
20190222033157 54 51 7.0 7.0 0.00 0.00 0.00 1014.4
20190222032121 54 79 8.0 12.0 0.00 0.00 0.00 1014.3
20190222031045 54 84 2.0 3.0 0.00 0.00 0.00 1014.2
20190222030009 54 58 8.0 7.0 0.00 0.00 0.00 1014.0
20190222024933 54 69 8.0 8.0 0.00 0.00 0.00 1013.6
20190222023856 54 87 9.0 10.0 0.00 0.00 0.00 1013.6
20190222022820 54 84 7.0 7.0 0.00 0.00 0.00 1013.5
20190222021744 54 75 9.0 9.0 0.00 0.00 0.00 1013.4
20190222020708 54 104 8.0 8.0 0.00 0.00 0.00 1013.1
20190222015632 54 80 10.0 9.0 0.00 0.00 0.00 1013.0
20190222014556 54 70 10.0 11.0 0.00 0.00 0.00 1012.3
20190222013519 54 83 9.0 11.0 0.00 0.00 0.00 1012.2
20190222012443 55 87 12.0 10.0 0.00 0.00 0.00 1011.9
20190222011406 55 55 11.0 9.0 0.00 0.00 0.00 1011.7
20190222010330 55 53 11.0 9.0 0.00 0.00 0.00 1011.7
20190222005254 55 49 9.0 8.0 0.00 0.00 0.00 1011.6
20190222004218 55 49 8.0 10.0 0.00 0.00 0.00 1011.5
20190222003142 55 42 12.0 7.0 0.00 0.00 0.00 1011.1
20190222002106 55 76 12.0 15.0 0.00 0.00 0.00 1011.0
20190222001029 55 34 12.0 11.0 0.00 0.00 0.00 1011.1
20190221235953 56 65 9.0 9.0 0.00 0.00 0.00 1011.2
20190221234917 56 86 9.0 6.0 0.00 0.00 0.00 1011.4
20190221233840 56 83 13.0 10.0 0.00 0.00 0.00 1011.5
20190221232804 57 76 11.0 10.0 0.00 0.00 0.00 1011.4
20190221231728 57 84 12.0 10.0 0.00 0.00 0.00 1011.4
20190221230652 58 90 12.0 13.0 0.00 0.00 0.00 1011.4
20190221225615 58 63 8.0 12.0 0.00 0.00 0.00 1011.2
20190221224539 58 83 9.0 16.0 0.00 0.00 0.00 1011.3
20190221223503 58 84 10.0 10.0 0.00 0.00 0.00 1011.4
20190221222427 59 35 12.0 11.0 0.00 0.00 0.00 1011.3
20190221221351 59 73 9.0 11.0 0.00 0.00 0.00 1011.1
20190221220315 59 84 13.0 12.0 0.00 0.00 0.00 1011.1
20190221215239 59 69 12.0 13.0 0.00 0.00 0.00 1011.2
20190221214202 59 62 13.0 12.0 0.00 0.00 0.00 1011.3
20190221213126 59 90 11.0 9.0 0.00 0.00 0.00 1011.4
20190221212050 59 73 11.0 9.0 0.00 0.00 0.00 1011.5
20190221211014 59 55 12.0 12.0 0.00 0.00 0.00 1011.6
20190221205934 59 89 12.0 7.0 0.00 0.00 0.00 1011.7
20190221204857 60 72 11.0 12.0 0.00 0.00 0.00 1011.8
20190221203821 60 66 11.0 11.0 0.00 0.00 0.00 1012.1
20190221202744 59 77 12.0 10.0 0.00 0.00 0.00 1012.3
20190221201709 59 56 11.0 10.0 0.00 0.00 0.00 1012.4
20190221200632 59 79 7.0 9.0 0.00 0.00 0.00 1012.7
20190221195556 59 82 9.0 8.0 0.00 0.00 0.00 1012.8
20190221194520 59 69 8.0 7.0 0.00 0.00 0.00 1013.2
20190221193444 59 70 6.0 9.0 0.00 0.00 0.00 1013.2
20190221192407 58 82 7.0 9.0 0.00 0.00 0.00 1013.4
20190221191331 58 69 9.0 8.0 0.00 0.00 0.00 1013.5
20190221190255 58 63 8.0 6.0 0.00 0.00 0.00 1013.6
20190221185219 58 45 7.0 6.0 0.00 0.00 0.00 1013.9
20190221184143 58 59 9.0 7.0 0.00 0.00 0.00 1014.1
20190221183107 57 83 6.0 10.0 0.00 0.00 0.00 1014.3
20190221182030 57 62 9.0 7.0 0.00 0.00 0.00 1014.3
20190221180954 56 53 8.0 7.0 0.00 0.00 0.00 1014.4
20190221175918 56 79 7.0 7.0 0.00 0.00 0.00 1014.4
20190221174842 56 53 9.0 10.0 0.00 0.00 0.00 1014.3
20190221173805 56 80 8.0 8.0 0.00 0.00 0.00 1014.2
20190221172729 56 55 10.0 7.0 0.00 0.00 0.00 1014.5
20190221171652 56 66 9.0 10.0 0.00 0.00 0.00 1014.5
20190221170616 56 65 10.0 11.0 0.00 0.00 0.00 1014.2
20190221165540 56 76 10.0 12.0 0.00 0.00 0.00 1014.4
20190221164504 56 48 9.0 11.0 0.00 0.00 0.00 1014.4
20190221163427 55 69 9.0 12.0 0.00 0.00 0.00 1014.5
20190221162350 55 68 10.0 7.0 0.00 0.00 0.00 1014.6
20190221161314 55 69 8.0 9.0 0.00 0.00 0.00 1014.6
20190221160238 55 77 8.0 9.0 0.00 0.00 0.00 1014.8
20190221154126 54 69 8.0 7.0 0.00 0.00 0.00 1014.8
20190221153050 55 55 8.0 7.0 0.00 0.00 0.00 1014.8
20190221150937 54 72 8.0 10.0 0.00 0.00 0.00 1014.5
20190221145901 53 66 10.0 10.0 0.00 0.00 0.00 1014.4
20190221144825 53 46 8.0 7.0 0.00 0.00 0.00 1014.6
20190221143749 53 51 6.0 6.0 0.00 0.00 0.00 1014.5
20190221142712 52 23 1.0 0.0 0.00 0.00 0.00 1014.5
20190221140557 51 15 1.0 0.0 0.00 0.00 0.00 1014.3
20190221134445 51 41 0.0 0.0 0.00 0.00 0.00 1014.1
20190221133408 50 41 0.0 0.0 0.00 0.00 0.00 1014.1
20190221132332 50 59 3.0 0.0 0.00 0.00 0.00 1013.8
20190221131256 50 59 4.0 8.0 0.00 0.00 0.00 1013.7
20190221130220 50 59 6.0 5.0 0.00 0.00 0.00 1013.5
20190221125144 50 59 6.0 5.0 0.00 0.00 0.00 1013.6
20190221124108 50 59 5.0 0.0 0.00 0.00 0.00 1013.6
20190221123031 50 30 0.0 0.0 0.00 0.00 0.00 1013.7
20190221115843 50 66 3.0 0.0 0.00 0.00 0.00 1013.5
20190221114804 50 77 3.0 5.0 0.00 0.00 0.00 1013.4
20190221113728 50 45 6.0 5.0 0.00 0.00 0.00 1013.4
20190221112652 50 62 6.0 7.0 0.00 0.00 0.00 1013.3
20190221111616 50 39 6.0 7.0 0.00 0.00 0.00 1013.4
20190221110540 50 62 6.0 6.0 0.00 0.00 0.00 1013.4
20190221105503 50 60 6.0 6.0 0.00 0.00 0.00 1013.4
20190221104427 50 60 6.0 5.0 0.00 0.00 0.00 1013.5
20190221103351 50 55 6.0 7.0 0.00 0.00 0.00 1013.6
20190221102315 50 53 7.0 6.0 0.00 0.00 0.00 1013.6
20190221100202 50 80 7.0 6.0 0.00 0.00 0.00 1014.0
20190221095126 50 68 7.0 6.0 0.00 0.00 0.00 1014.1
20190221094050 50 87 8.0 7.0 0.00 0.00 0.00 1014.2
20190221093014 50 90 8.0 7.0 0.00 0.00 0.00 1014.2
20190221091938 50 82 9.0 9.0 0.00 0.00 0.00 1014.4
20190221090902 50 79 7.0 9.0 0.00 0.00 0.00 1014.6
20190221085825 50 84 7.0 8.0 0.00 0.00 0.00 1014.7
20190221084749 50 76 8.0 8.0 0.00 0.00 0.00 1014.8
20190221083713 50 60 8.0 6.0 0.00 0.00 0.00 1015.0
20190221082637 50 82 7.0 8.0 0.00 0.00 0.00 1014.9